COSMOS 2485 (747)

Last updated on Thu Nov 21 2024 00:03:12 GMT+0000 (Coordinated Universal Time)

1 39155U 13019A 24325.00902972 .00000018 00000+0 00000+0 0 9999 2 39155 65.1153 92.9212 0023399 227.5263 132.2590 2.13104459 90048
UTC large
Height (km)
Speed (km/s)
/
Latitude / Longitude
Inclination (degrees)
Orbital Period (minutes)
Azimuth
Elevation
Range (km)
Doppler Factor

Next 0 passes for location: London (51.5072 / 0.1276)

Sorry there are no passes over London.